Weather History for PAQT - January, 2013

Change the Weather History Date:

Thursday, January 10, 2013

  Actual Average (PAKU) Record (PAKU)
Temperature  
Mean Temperature -22 °F -  
Max Temperature -16 °F -6 °F 26 °F (2011)
Min Temperature -27 °F -15 °F -40 °F (1991)
Degree Days  
Heating Degree Days 86    
Moisture  
Dew Point -24 °F    
Average Humidity 84    
Maximum Humidity 100    
Minimum Humidity 74    
Precipitation  
Precipitation 0.00 in - - ()
Sea Level Pressure  
Sea Level Pressure 30.15 in    
Wind  
Wind Speed 2 mph (North)    
Max Wind Speed 6 mph    
Max Gust Speed -    
Visibility 5 miles    
Events Fog    
Averages and records for this station are not official NWS values.
T = Trace of Precipitation, MM = Missing Value Source: NWS Daily Summary

Daily Weather History Graph

Daily Weather History Graph

Search for Another Location

Airport or City:

Trip Planner

Search our weather history database for the weather conditions in past years. The results will help you decide how hot, cold, wet, or windy it might be!

Date:

Astronomy

Jan. 10, 2013 Rise Set
Actual Time 12:39 PM AKST 1:44 PM AKST
Civil Twilight 10:37 AM AKST 3:46 PM AKST
Nautical Twilight 8:59 AM AKST 5:24 PM AKST
Astronomical Twilight 7:41 AM AKST 6:42 PM AKST
Moon No Moon Rise No Moon Set
Length of Visible Light 5h 09m
Length of Day
1h 04m
Waning Crescent, 1% of the Moon is Illuminated
Jan 10
Waning Crescent
Jan 11
New
Jan 18
First Quarter
Jan 26
Full
Feb 3
Last Quarter

Hourly Weather History & Observations

Time (AKST) Temp. Windchill Dew Point Humidity Pressure Visibility Wind Dir Wind Speed Gust Speed Precip Events Conditions
12:08 AM -16.6 °F -26.8 °F -20.2 °F 84% 30.16 in 0.5 mi WSW 3.5 mph - N/A Fog Light Freezing Fog
12:53 AM -18.0 °F - -18.9 °F 96% 30.16 in 0.8 mi Calm Calm - N/A   Overcast
1:05 AM -16.6 °F - -18.4 °F 92% 30.16 in 1.5 mi Calm Calm - N/A   Overcast
1:53 AM -17.0 °F -27.2 °F -20.0 °F 86% 30.15 in 7.0 mi North 3.5 mph - N/A   Overcast
2:05 AM -16.6 °F -29.3 °F -20.2 °F 84% 30.14 in 1.8 mi North 4.6 mph - N/A   Overcast
2:23 AM -16.6 °F -29.3 °F -20.2 °F 84% 30.14 in 2.0 mi North 4.6 mph - N/A   Overcast
2:34 AM -16.6 °F -26.8 °F -20.2 °F 84% 30.14 in 1.0 mi North 3.5 mph - N/A   Overcast
2:56 AM -16.6 °F - -18.4 °F 92% 30.14 in 3.0 mi Calm Calm - N/A   Overcast
3:44 AM -18.4 °F - -18.4 °F 100% 30.14 in 1.8 mi Calm Calm - N/A   Overcast
3:53 AM -18.0 °F - -20.0 °F 91% 30.14 in 1.5 mi Calm Calm - N/A   Overcast
4:05 AM -18.4 °F - -20.2 °F 91% 30.13 in 0.5 mi Calm Calm - N/A Fog Light Freezing Fog
4:39 AM -18.4 °F -28.9 °F -22.0 °F 84% 30.13 in 0.5 mi NW 3.5 mph - N/A Fog Light Freezing Fog
4:53 AM -20.0 °F - -22.0 °F 91% 30.13 in 0.5 mi Calm Calm - N/A Fog Light Freezing Fog
5:08 AM -20.2 °F -30.9 °F -22.0 °F 91% 30.13 in 1.2 mi NW 3.5 mph - N/A   Overcast
5:20 AM -20.2 °F - -23.8 °F 83% 30.13 in 2.5 mi Calm Calm - N/A   Overcast
5:30 AM -20.2 °F - -23.8 °F 83% 30.13 in 3.0 mi Calm Calm - N/A   Overcast
5:53 AM -23.1 °F -34.2 °F -26.0 °F 86% 30.14 in 6.0 mi WNW 3.5 mph - N/A   Overcast
6:13 AM -22.0 °F - -25.6 °F 83% 30.13 in 6.0 mi Calm Calm - N/A   Overcast
6:33 AM -22.0 °F - -25.6 °F 83% 30.12 in 3.0 mi Calm Calm - N/A   Overcast
6:41 AM -22.0 °F - -23.8 °F 91% 30.12 in 1.8 mi Calm Calm - N/A   Overcast
6:53 AM -20.9 °F - -24.0 °F 86% 30.13 in 1.2 mi Calm Calm - N/A   Overcast
7:35 AM -22.0 °F - -25.6 °F 83% 30.12 in 3.0 mi Calm Calm - N/A   Mostly Cloudy
7:48 AM -22.0 °F - -25.6 °F 83% 30.13 in 6.0 mi Calm Calm - N/A   Scattered Clouds
7:53 AM -22.0 °F - -25.1 °F 86% 30.14 in 6.0 mi Calm Calm - N/A   Mostly Cloudy
8:53 AM -20.9 °F -36.4 °F -26.0 °F 77% 30.13 in 8.0 mi NNE 5.8 mph - N/A   Overcast
9:53 AM -20.0 °F -30.7 °F -24.0 °F 82% 30.14 in 6.0 mi NE 3.5 mph - N/A   Overcast
10:53 AM -20.0 °F -33.3 °F -24.0 °F 82% 30.15 in 7.0 mi NE 4.6 mph - N/A   Overcast
11:53 AM -20.0 °F -33.3 °F -23.1 °F 86% 30.15 in 8.0 mi NNE 4.6 mph - N/A   Overcast
12:53 PM -20.9 °F -31.7 °F -25.1 °F 81% 30.16 in 8.0 mi NNE 3.5 mph - N/A   Overcast
1:53 PM -20.9 °F -36.4 °F -26.0 °F 77% 30.16 in 8.0 mi NNE 5.8 mph - N/A   Overcast
2:22 PM -20.2 °F -33.5 °F -25.6 °F 76% 30.16 in 8.0 mi NNE 4.6 mph - N/A   Overcast
2:53 PM -22.0 °F - -26.0 °F 82% 30.17 in 8.0 mi Calm Calm - N/A   Overcast
3:32 PM -22.0 °F - -27.4 °F 76% 30.17 in 9.0 mi Calm Calm - N/A   Partly Cloudy
3:53 PM -23.1 °F -34.2 °F -27.0 °F 82% 30.18 in 4.0 mi North 3.5 mph - N/A   Clear
4:53 PM -24.0 °F -35.2 °F -27.9 °F 82% 30.18 in 9.0 mi NNE 3.5 mph - N/A   Clear
5:53 PM -25.1 °F -36.5 °F -29.0 °F 82% 30.19 in 8.0 mi NNE 3.5 mph - N/A   Clear
6:53 PM -24.0 °F - -29.9 °F 74% 30.19 in 9.0 mi Calm Calm - N/A   Clear
7:53 PM -27.0 °F - -32.1 °F 77% 30.21 in 9.0 mi Calm Calm - N/A   Clear
8:53 PM -26.0 °F -40.2 °F -29.9 °F 81% 30.19 in 8.0 mi NNE 4.6 mph - N/A   Clear
9:53 PM -27.0 °F -43.7 °F -31.0 °F 81% 30.19 in 8.0 mi NNE 5.8 mph - N/A   Clear
10:53 PM -26.0 °F - -29.0 °F 85% 30.20 in 8.0 mi Calm Calm - N/A   Clear
11:53 PM -27.9 °F -39.8 °F -32.1 °F 81% 30.20 in 8.0 mi ENE 3.5 mph - N/A   Clear